DW9313 Weather Reports


Display with metric or nautical units.
time (UTC)temp
F
wind
direction
speed
MPH
gust
MPH
rain 1hr
in
rain 24hr
in
rain mn
in
humidity
%
barometer
mb
20260903224308 59 315 1.0 3.0 0.06 0.33 0.33 97 1008.3
20260903223808 59 295 2.0 6.0 0.06 0.33 0.33 97 1008.5
20260903223310 59 305 0.0 2.0 0.06 0.32 0.32 97 1008.5
20260903222308 59 309 1.0 6.0 0.06 0.32 0.32 97 1008.6
20260903221810 59 313 1.0 3.0 0.06 0.32 0.32 97 1008.5
20260903220808 60 315 3.0 6.0 0.06 0.31 0.31 96 1008.3
20260903220308 60 314 4.0 7.0 0.06 0.31 0.31 96 1008.3
20260903215808 60 305 6.0 9.0 0.07 0.31 0.31 96 1008.3
20260903213309 61 102 1.0 3.0 0.12 0.27 0.27 96 1008.1
20260903212309 61 107 0.0 2.0 0.16 0.26 0.26 96 1008.3
20260903211308 61 308 0.0 0.0 0.18 0.25 0.25 96 1008.7
20260903210809 61 308 0.0 0.0 0.20 0.25 0.25 96 1008.7
20260903210309 61 355 0.0 0.0 0.20 0.24 0.24 96 1008.8
20260903205810 62 19 0.0 0.0 0.21 0.24 0.24 96 1008.9
20260903205309 62 101 0.0 0.0 0.22 0.24 0.24 96 1009.1
20260903204811 62 270 0.0 0.0 0.20 0.22 0.22 96 1009.1
20260903204320 62 271 0.0 2.0 0.20 0.20 0.20 96 1009.4
20260903203811 62 292 2.0 5.0 0.18 0.19 0.19 95 1009.5
20260903203315 62 259 1.0 3.0 0.15 0.16 0.16 95 1009.6
20260903202812 62 286 1.0 3.0 0.14 0.14 0.14 95 1009.6
20260903202320 62 287 1.0 3.0 0.12 0.12 0.12 95 1009.7
20260903201811 62 271 0.0 1.0 0.09 0.09 0.09 95 1010.0
20260903201309 62 304 0.0 2.0 0.08 0.08 0.08 95 1010.0
20260903200811 62 286 1.0 2.0 0.06 0.06 0.06 95 1010.1
20260903200309 62 282 0.0 0.0 0.05 0.05 0.05 94 1010.2
20260903195810 62 309 0.0 1.0 0.03 0.03 0.03 94 1010.3
20260903195310 62 271 0.0 1.0 0.02 0.02 0.02 94 1010.4
20260903194810 62 291 1.0 2.0 0.02 0.02 0.02 93 1010.4
20260903194309 62 298 0.0 1.0 0.02 0.02 0.02 92 1010.3
20260903193809 62 191 0.0 3.0 0.01 0.01 0.01 92 1010.4
20260903193310 62 301 1.0 6.0 0.01 0.01 0.01 91 1010.4
20260903192811 63 280 1.0 3.0 0.01 0.01 0.01 90 1010.6
20260903192309 63 308 1.0 6.0 0.00 0.00 0.00 89 1010.8
20260903191809 63 293 1.0 6.0 0.00 0.00 0.00 88 1010.7
20260903191310 63 308 3.0 7.0 0.00 0.00 0.00 88 1010.7
20260903190810 64 308 2.0 6.0 0.00 0.00 0.00 89 1010.7
20260903190310 64 302 2.0 6.0 0.00 0.00 0.00 90 1010.8
20260903185809 64 275 1.0 7.0 0.00 0.00 0.00 90 1011.0
20260903185310 64 307 2.0 7.0 0.00 0.00 0.00 90 1011.2
20260903184810 64 302 3.0 10.0 0.00 0.00 0.00 90 1011.5
20260903184311 64 298 4.0 8.0 0.00 0.00 0.00 90 1011.6
20260903183810 64 303 3.0 7.0 0.00 0.00 0.00 90 1011.6
20260903183309 64 291 2.0 7.0 0.00 0.00 0.00 89 1011.6
20260903181810 64 315 3.0 8.0 0.00 0.00 0.00 89 1011.8
20260903181310 64 287 3.0 8.0 0.00 0.00 0.00 88 1011.9
20260903180810 64 306 2.0 6.0 0.00 0.00 0.00 89 1011.9
20260903180310 64 301 3.0 8.0 0.00 0.00 0.00 89 1011.9
20260903175810 64 306 3.0 7.0 0.00 0.00 0.00 89 1011.9
20260903175311 64 288 5.0 9.0 0.00 0.00 0.00 89 1012.0
20260903174812 64 303 4.0 13.0 0.00 0.00 0.00 89 1012.2
20260903174310 64 287 5.0 10.0 0.00 0.00 0.00 88 1012.2
20260903173810 64 290 3.0 9.0 0.00 0.00 0.00 88 1012.3
20260903173312 64 303 3.0 8.0 0.00 0.00 0.00 88 1012.1
20260903172811 64 299 4.0 14.0 0.00 0.00 0.00 89 1012.1
20260903172311 64 295 6.0 12.0 0.00 0.00 0.00 89 1012.5
20260903171812 64 311 4.0 12.0 0.00 0.00 0.00 89 1012.4
20260903171312 64 295 5.0 10.0 0.00 0.00 0.00 89 1012.2
20260903165813 65 308 5.0 14.0 0.00 0.00 0.00 88 1012.2
20260903164312 65 299 6.0 15.0 0.00 0.00 0.00 88 1012.3
20260903163810 65 308 6.0 12.0 0.00 0.00 0.00 88 1012.4
20260903163311 65 304 6.0 14.0 0.00 0.00 0.00 88 1012.4
20260903162811 65 305 4.0 12.0 0.00 0.00 0.00 88 1012.2
20260903162310 65 307 4.0 13.0 0.00 0.00 0.00 87 1012.2
20260903161311 66 288 5.0 12.0 0.00 0.00 0.00 86 1012.4
20260903160811 66 302 2.0 8.0 0.00 0.00 0.00 86 1012.4
20260903160311 66 310 5.0 12.0 0.00 0.00 0.00 85 1012.7
20260903155811 67 293 6.0 10.0 0.00 0.00 0.00 84 1012.7
20260903155311 67 305 4.0 12.0 0.00 0.00 0.00 85 1012.9
20260903154313 68 285 5.0 14.0 0.00 0.00 0.00 84 1012.8
20260903153812 68 259 6.0 12.0 0.00 0.00 0.00 84 1013.0
20260903153311 68 302 5.0 10.0 0.00 0.00 0.00 83 1012.9
20260903152812 68 312 4.0 10.0 0.00 0.00 0.00 83 1012.8
20260903151311 69 325 3.0 12.0 0.00 0.00 0.00 82 1013.0
20260903150812 70 304 6.0 13.0 0.00 0.00 0.00 82 1013.0
20260903150312 70 304 5.0 12.0 0.00 0.00 0.00 82 1013.1
20260903145812 69 293 4.0 10.0 0.00 0.00 0.00 83 1013.1
20260903145311 69 299 4.0 8.0 0.00 0.00 0.00 83 1013.2
20260903144812 69 306 2.0 9.0 0.00 0.00 0.00 83 1013.2
20260903144313 69 310 6.0 12.0 0.00 0.00 0.00 84 1013.2
20260903143812 68 293 6.0 10.0 0.00 0.00 0.00 84 1013.4
20260903142812 68 312 4.0 12.0 0.00 0.00 0.00 85 1013.3
20260903142313 68 303 6.0 15.0 0.00 0.00 0.00 84 1013.5
20260903141813 68 312 5.0 10.0 0.00 0.00 0.00 84 1013.7
20260903141312 69 297 7.0 15.0 0.00 0.00 0.00 83 1013.5
20260903140811 69 321 6.0 13.0 0.00 0.00 0.00 81 1013.3
20260903140313 70 294 5.0 12.0 0.00 0.00 0.00 82 1013.2
20260903135812 69 295 4.0 9.0 0.00 0.00 0.00 84 1013.4
20260903135314 69 302 6.0 13.0 0.00 0.00 0.00 84 1013.7
20260903134812 68 307 7.0 13.0 0.00 0.00 0.00 84 1013.7
20260903134312 68 278 3.0 6.0 0.00 0.00 0.00 85 1013.4
20260903133813 68 298 6.0 14.0 0.00 0.00 0.00 85 1013.4
20260903133313 68 309 5.0 13.0 0.00 0.00 0.00 85 1013.5
20260903132312 68 297 7.0 14.0 0.00 0.00 0.00 84 1013.7
20260903131813 69 300 6.0 12.0 0.00 0.00 0.00 84 1013.6
20260903131314 69 296 6.0 12.0 0.00 0.00 0.00 84 1013.6
20260903130813 69 291 5.0 14.0 0.00 0.00 0.00 85 1013.4
20260903130313 68 323 5.0 12.0 0.00 0.00 0.00 85 1013.3
20260903125814 68 316 6.0 12.0 0.00 0.00 0.00 85 1013.4
20260903125312 68 283 5.0 12.0 0.00 0.00 0.00 85 1013.4
20260903124813 68 280 4.0 13.0 0.00 0.00 0.00 86 1013.5
20260903124315 68 312 5.0 8.0 0.00 0.00 0.00 86 1013.5
20260903123812 68 297 3.0 9.0 0.00 0.00 0.00 86 1013.7
20260903123313 68 301 6.0 12.0 0.00 0.00 0.00 85 1013.8
20260903122815 68 284 5.0 12.0 0.00 0.00 0.00 84 1013.8
20260903122313 69 303 3.0 12.0 0.00 0.00 0.00 84 1013.9
20260903121813 69 282 3.0 8.0 0.00 0.00 0.00 84 1013.7
20260903120815 69 277 3.0 8.0 0.00 0.00 0.00 86 1013.8
20260903120314 69 303 5.0 12.0 0.00 0.00 0.00 87 1013.7
20260903115313 68 300 5.0 9.0 0.00 0.00 0.00 88 1014.1
20260903114813 68 305 6.0 10.0 0.00 0.00 0.00 87 1014.1
20260903113813 68 326 3.0 8.0 0.00 0.00 0.00 88 1014.2
20260903113314 67 322 4.0 8.0 0.00 0.00 0.00 88 1014.0
20260903112813 68 294 3.0 9.0 0.00 0.00 0.00 88 1014.2
20260903111813 67 292 3.0 8.0 0.00 0.00 0.00 88 1014.3
20260903111314 68 286 4.0 12.0 0.00 0.00 0.00 87 1014.3
20260903110813 68 295 5.0 9.0 0.00 0.00 0.00 87 1014.4
20260903110314 68 288 6.0 12.0 0.00 0.00 0.00 87 1014.2
20260903105814 67 283 4.0 7.0 0.00 0.00 0.00 88 1014.2
20260903105314 67 300 3.0 6.0 0.00 0.00 0.00 88 1014.2
20260903104814 67 313 3.0 7.0 0.00 0.00 0.00 88 1014.2
20260903104315 67 301 3.0 8.0 0.00 0.00 0.00 88 1014.1
20260903103816 67 277 4.0 7.0 0.00 0.00 0.00 87 1014.3
20260903103315 68 302 2.0 6.0 0.00 0.00 0.00 87 1014.0
20260903102814 68 307 2.0 6.0 0.00 0.00 0.00 86 1013.9
20260903102314 68 305 2.0 7.0 0.00 0.00 0.00 85 1013.9
20260903101314 68 181 0.0 5.0 0.00 0.00 0.00 85 1014.0
20260903100814 68 296 2.0 5.0 0.00 0.00 0.00 84 1014.1
20260903100314 68 310 1.0 5.0 0.00 0.00 0.00 84 1014.1
20260903095813 68 297 2.0 6.0 0.00 0.00 0.00 83 1014.2
20260903094814 68 338 2.0 8.0 0.00 0.00 0.00 85 1014.3
20260903094314 68 284 3.0 6.0 0.00 0.00 0.00 84 1014.2
20260903093314 68 288 2.0 6.0 0.00 0.00 0.00 88 1014.3
20260903092815 67 296 3.0 8.0 0.00 0.00 0.00 88 1014.6
20260903091315 66 301 3.0 7.0 0.00 0.00 0.00 90 1014.5
20260903090814 65 315 3.0 7.0 0.00 0.00 0.00 90 1014.7
20260903090315 65 297 4.0 9.0 0.00 0.00 0.00 90 1014.6
20260903085816 65 293 3.0 9.0 0.00 0.00 0.00 90 1014.5
20260903085315 65 317 3.0 7.0 0.00 0.00 0.00 90 1014.7
20260903084814 65 311 2.0 7.0 0.00 0.00 0.00 90 1014.7
20260903084314 65 295 4.0 7.0 0.00 0.00 0.00 90 1014.8
20260903083815 65 299 3.0 6.0 0.00 0.00 0.00 91 1014.7
20260903083315 64 325 2.0 6.0 0.00 0.00 0.00 91 1014.6
20260903082815 64 307 3.0 5.0 0.00 0.00 0.00 92 1014.6
20260903082314 64 298 2.0 6.0 0.00 0.00 0.00 92 1014.6
20260903081315 64 313 2.0 7.0 0.00 0.00 0.00 92 1014.6
20260903080816 64 308 2.0 6.0 0.00 0.00 0.00 92 1014.6
20260903080316 64 304 2.0 6.0 0.00 0.00 0.00 92 1014.7
20260903075815 63 299 3.0 7.0 0.00 0.00 0.00 92 1014.7
20260903075315 63 316 2.0 6.0 0.00 0.00 0.00 93 1014.6
20260903074815 63 300 2.0 6.0 0.00 0.00 0.00 93 1014.5
20260903073815 63 267 1.0 6.0 0.00 0.00 0.00 93 1014.6
20260903073316 63 302 3.0 7.0 0.00 0.00 0.00 93 1014.5
20260903072815 63 296 2.0 6.0 0.00 0.00 0.00 93 1014.6
20260903072315 63 295 2.0 5.0 0.00 0.00 0.00 93 1014.7
20260903071815 62 303 1.0 6.0 0.00 0.00 0.00 93 1014.6
20260903071317 62 304 1.0 6.0 0.00 0.00 0.00 93 1014.5
20260903070316 62 292 2.0 6.0 0.00 0.00 0.00 94 1014.3
20260903065816 61 294 2.0 6.0 0.00 0.00 0.00 94 1014.3
20260903065317 61 304 1.0 6.0 0.00 0.00 0.00 95 1014.3
20260903064815 61 298 1.0 6.0 0.00 0.00 0.00 95 1014.3
20260903064316 61 323 2.0 6.0 0.00 0.00 0.00 95 1014.4
20260903063816 61 304 0.0 2.0 0.00 0.00 0.00 95 1014.3
20260903063315 61 325 1.0 3.0 0.00 0.00 0.00 95 1014.3
20260903062816 60 300 1.0 5.0 0.00 0.00 0.00 95 1014.4
20260903062317 60 286 2.0 6.0 0.00 0.00 0.00 95 1014.4
20260903061315 60 285 1.0 3.0 0.00 0.00 0.00 94 1014.3
20260903060816 60 295 2.0 5.0 0.00 0.00 0.00 94 1014.3
20260903060316 60 289 1.0 5.0 0.00 0.01 0.00 94 1014.3
20260903054816 60 316 1.0 2.0 0.00 0.02 0.00 94 1014.1
20260903054316 61 310 1.0 5.0 0.00 0.02 0.00 94 1014.1
20260903053816 61 311 1.0 3.0 0.00 0.02 0.00 94 1013.9
20260903053318 61 292 1.0 3.0 0.00 0.02 0.00 94 1013.8
20260903052816 61 319 1.0 5.0 0.00 0.03 0.00 94 1013.8
20260903052316 61 290 1.0 5.0 0.00 0.04 0.00 94 1013.7
20260903051817 61 304 0.0 5.0 0.00 0.05 0.00 94 1013.7
20260903051317 61 308 1.0 5.0 0.00 0.06 0.00 94 1013.7
20260903050816 60 298 0.0 5.0 0.00 0.06 0.00 94 1013.7
20260903045317 60 330 0.0 1.0 0.00 0.10 0.00 93 1013.5
20260903044816 60 257 0.0 1.0 0.00 0.12 0.00 93 1013.6
20260903044317 61 287 0.0 1.0 0.00 0.13 0.00 93 1013.7
20260903043816 61 355 0.0 1.0 0.00 0.14 0.00 93 1013.8
20260903043317 61 304 1.0 3.0 0.00 0.15 0.00 93 1013.9
20260903042317 61 299 1.0 5.0 0.00 0.16 0.00 93 1013.8
20260903041817 61 280 1.0 6.0 0.00 0.17 0.00 93 1013.8
20260903040817 61 292 2.0 7.0 0.00 0.18 0.00 93 1013.9
20260903040318 61 286 1.0 5.0 0.00 0.18 0.00 93 1013.9
20260903035818 61 281 3.0 6.0 0.00 0.19 0.00 93 1014.0
20260903035318 61 286 0.0 5.0 0.00 0.20 0.00 93 1013.9
20260903034817 61 275 2.0 6.0 0.00 0.21 0.00 93 1014.0
20260903034318 61 295 1.0 5.0 0.00 0.21 0.00 93 1014.0
20260903033818 61 316 2.0 5.0 0.00 0.22 0.00 93 1013.9
20260903033318 61 304 3.0 6.0 0.00 0.23 0.00 93 1013.8
20260903032817 61 305 2.0 6.0 0.00 0.24 0.00 93 1013.8
20260903032319 61 301 2.0 6.0 0.00 0.24 0.00 93 1013.9
20260903031317 61 305 1.0 3.0 0.00 0.24 0.00 93 1013.7
20260903030317 61 303 1.0 5.0 0.00 0.27 0.00 93 1013.7
20260903025818 61 309 2.0 6.0 0.00 0.28 0.00 93 1013.6
20260903025318 61 299 2.0 6.0 0.00 0.28 0.00 93 1013.6
20260903024818 61 300 1.0 6.0 0.00 0.28 0.00 93 1013.5
20260903024317 61 302 0.0 3.0 0.00 0.31 0.00 93 1013.5
20260903023818 61 299 0.0 2.0 0.00 0.31 0.00 92 1013.6
20260903023317 61 296 0.0 3.0 0.00 0.31 0.00 92 1013.6
20260903022818 62 291 1.0 3.0 0.00 0.31 0.00 92 1013.5
20260903022317 62 297 1.0 2.0 0.00 0.32 0.00 91 1013.5
20260903021319 62 306 0.0 1.0 0.00 0.33 0.00 91 1013.6
20260903020818 62 304 0.0 5.0 0.00 0.34 0.00 91 1013.6
20260903020318 62 297 1.0 3.0 0.00 0.35 0.00 92 1013.5
20260903015818 62 292 0.0 1.0 0.00 0.35 0.00 92 1013.4
20260903015317 62 292 1.0 6.0 0.00 0.36 0.00 92 1013.5
20260903014820 62 305 0.0 1.0 0.00 0.36 0.00 92 1013.4
20260903014318 62 257 0.0 1.0 0.00 0.36 0.00 92 1013.5
20260903013818 62 298 0.0 1.0 0.00 0.36 0.00 92 1013.5
20260903013319 62 303 1.0 3.0 0.00 0.37 0.00 92 1013.6
20260903012819 62 300 1.0 3.0 0.00 0.37 0.00 92 1013.6
20260903012320 62 287 1.0 3.0 0.00 0.37 0.00 92 1013.6
20260903011818 62 310 1.0 5.0 0.00 0.38 0.00 92 1013.7
20260903011319 62 310 2.0 6.0 0.00 0.38 0.00 92 1013.7
20260903010818 62 292 3.0 8.0 0.00 0.39 0.00 92 1013.8
20260903005819 62 297 1.0 5.0 0.00 0.39 0.00 93 1013.5
20260903005318 62 298 1.0 3.0 0.00 0.39 0.00 93 1013.4
20260903004820 62 289 0.0 5.0 0.00 0.40 0.00 93 1013.4
20260903004318 62 292 0.0 3.0 0.00 0.40 0.00 93 1013.4
20260903003820 62 255 0.0 3.0 0.00 0.41 0.00 93 1013.4
20260903003318 63 320 0.0 2.0 0.00 0.42 0.00 93 1013.3
20260903002319 63 264 0.0 2.0 0.00 0.43 0.00 93 1013.4
20260903001820 63 284 2.0 6.0 0.00 0.43 0.00 93 1013.3
20260903001319 63 282 2.0 6.0 0.00 0.43 0.00 94 1013.2
20260903000818 63 310 2.0 6.0 0.00 0.44 0.00 94 1013.4
20260903000318 62 301 2.0 5.0 0.00 0.45 0.00 95 1013.4
20260902235820 63 318 1.0 6.0 0.00 0.46 0.00 95 1013.4
20260902235318 63 290 1.0 3.0 0.00 0.46 0.00 96 1013.4
20260902234820 63 301 2.0 6.0 0.00 0.47 0.00 96 1013.3
20260902234319 63 234 0.0 3.0 0.00 0.48 0.00 96 1013.3
20260902233819 63 300 1.0 5.0 0.00 0.48 0.00 96 1013.3
20260902233319 63 281 1.0 3.0 0.00 0.48 0.00 96 1013.3
20260902232819 63 232 0.0 2.0 0.00 0.48 0.00 96 1013.3
20260902232320 62 290 1.0 3.0 0.00 0.48 0.00 96 1013.1
20260902231820 62 325 0.0 2.0 0.00 0.48 0.00 96 1013.2
20260902231319 63 251 0.0 2.0 0.00 0.48 0.00 95 1013.2
20260902230837 63 294 0.0 3.0 0.00 0.48 0.00 95 1013.2
20260902230321 63 319 1.0 5.0 0.00 0.48 0.00 95 1013.1
20260902225319 63 239 0.0 1.0 0.00 0.48 0.48 95 1013.0
20260902224820 63 283 0.0 1.0 0.00 0.48 0.48 95 1013.2